Location: Izdebno
(52.6670°N, 16.2170°E)
Time: 22:15:26
(UTC+02:00)

Vanguard 2 Rocket - Pass Details

Date: 28 February 2024
Orbit: 555 x 3307 km, 32.9° (Epoch: 21 April)

Event Time Altitude Azimuth Distance (km) Brightness Sun altitude
Rises 20:24:03 0° 262° (W) 6,182 12.0 -26.5°
Reaches altitude 10° 20:33:13 10° 233° (SW) 5,799 11.3 -27.8°
Maximum altitude 20:37:14 11° 220° (SW) 5,894 11.1 -28.3°
Drops below altitude 10° 20:41:28 10° 207° (SSW) 6,139 11.1 -28.9°
Sets 20:52:42 0° 180° (S) 7,270 11.2 -30.4°
